Weather History for East Midlands, United Kingdom

Change the Weather History Date:

Friday, October 26, 2012

  Actual Average Record
Temperature  
Mean Temperature 40 °F -  
Max Temperature 44 °F 48 °F 62 °F (2005)
Min Temperature 35 °F 39 °F 32 °F (1997)
Degree Days  
Heating Degree Days 26    
Moisture  
Dew Point 33 °F    
Average Humidity 72    
Maximum Humidity 87    
Minimum Humidity 57    
Precipitation  
Precipitation 0.00 in - - ()
Sea Level Pressure  
Sea Level Pressure 30.00 in    
Wind  
Wind Speed 13 mph ()    
Max Wind Speed 20 mph    
Max Gust Speed -    
Visibility 6.2 miles    
Events Rain    
Averages and records for this station are not official NWS values.
T = Trace of Precipitation, MM = Missing Value Source: Averaged Metar Reports

Daily Weather History Graph

Daily Weather History Graph

Search for Another Location

Airport:

Trip Planner

Search our weather history database for the weather conditions in past years. The results will help you decide how hot, cold, wet, or windy it might be!

Date:

Astronomy

Oct. 26, 2012 Rise Set
Actual Time 7:51 AM BST 5:45 PM BST
Civil Twilight 7:16 AM BST 6:21 PM BST
Nautical Twilight 6:35 AM BST 7:01 PM BST
Astronomical Twilight 5:56 AM BST 7:41 PM BST
Moon 4:12 PM BST (10/26) 4:11 AM BST (10/26)
Length of Visible Light 11h 05m
Length of Day
9h 53m
Waxing Gibbous, 89% of the Moon is Illuminated
Oct 26
Waxing Gibbous
Oct 29
Full
Nov 7
Last Quarter
Nov 13
New
Nov 20
First Quarter

Hourly Weather History & Observations

Time (BST) Temp. Windchill Dew Point Humidity Pressure Visibility Wind Dir Wind Speed Gust Speed Precip Events Conditions
12:20 AM 44.6 °F 36.6 °F 41.0 °F 87% 30.06 in 6.2 mi NE 19.6 mph - N/A   Scattered Clouds
12:50 AM 44.6 °F 36.9 °F 39.2 °F 81% 30.06 in 6.2 mi NE 18.4 mph - N/A   Scattered Clouds
1:20 AM 44.6 °F 37.8 °F 37.4 °F 76% 30.06 in 6.2 mi NE 15.0 mph - N/A   Scattered Clouds
1:50 AM 44.6 °F 37.2 °F 37.4 °F 76% 30.06 in 6.2 mi NE 17.3 mph - N/A   Scattered Clouds
2:20 AM 44.6 °F 36.6 °F 35.6 °F 71% 30.06 in 6.2 mi NE 19.6 mph - N/A   Scattered Clouds
2:50 AM 44.6 °F 37.4 °F 35.6 °F 71% 30.06 in 6.2 mi NE 16.1 mph - N/A   Scattered Clouds
3:20 AM 42.8 °F 35.8 °F 35.6 °F 76% 30.06 in 6.2 mi NNE 13.8 mph - N/A   Scattered Clouds
3:50 AM 42.8 °F 35.8 °F 37.4 °F 81% 30.06 in 6.2 mi NE 13.8 mph - N/A   Scattered Clouds
4:20 AM 42.8 °F 35.8 °F 37.4 °F 81% 30.04 in 6.2 mi NNE 13.8 mph - N/A   Mostly Cloudy
4:50 AM 41.0 °F 34.7 °F 35.6 °F 81% 30.04 in 6.2 mi NNE 10.4 mph - N/A   Mostly Cloudy
5:20 AM 41.0 °F 34.3 °F 35.6 °F 81% 30.04 in 6.2 mi NNE 11.5 mph - N/A   Partly Cloudy
5:50 AM 41.0 °F 34.7 °F 35.6 °F 81% 30.04 in 6.2 mi NNE 10.4 mph - N/A   Partly Cloudy
6:20 AM 41.0 °F 35.2 °F 35.6 °F 81% 30.04 in 6.2 mi NNE 9.2 mph - N/A   Scattered Clouds
6:50 AM 41.0 °F 34.7 °F 35.6 °F 81% 30.04 in 6.2 mi NNE 10.4 mph - N/A   Scattered Clouds
7:20 AM 41.0 °F 34.7 °F 35.6 °F 81% 30.04 in 6.2 mi NNE 10.4 mph - N/A   Mostly Cloudy
7:50 AM 41.0 °F 35.2 °F 33.8 °F 76% 30.04 in 6.2 mi NNE 9.2 mph - N/A   Mostly Cloudy
8:20 AM 41.0 °F 34.7 °F 33.8 °F 76% 30.01 in 6.2 mi NNE 10.4 mph - N/A   Mostly Cloudy
8:50 AM 41.0 °F 34.7 °F 33.8 °F 76% 30.01 in 6.2 mi NNE 10.4 mph - N/A   Mostly Cloudy
9:20 AM 41.0 °F 34.3 °F 33.8 °F 76% 30.01 in - NNE 11.5 mph - N/A   Clear
9:50 AM 42.8 °F 36.2 °F 33.8 °F 70% 30.01 in - NNE 12.7 mph - N/A   Clear
10:20 AM 42.8 °F 36.6 °F 32.0 °F 66% 30.01 in 6.2 mi NNE 11.5 mph - N/A   Partly Cloudy
10:50 AM 42.8 °F 36.2 °F 32.0 °F 66% 30.01 in 6.2 mi NNE 12.7 mph - N/A   Partly Cloudy
11:20 AM 42.8 °F 35.8 °F 33.8 °F 70% 30.01 in 6.2 mi NNE 13.8 mph - N/A   Partly Cloudy
11:50 AM 44.6 °F 38.1 °F 33.8 °F 66% 30.01 in 6.2 mi NNE 13.8 mph - N/A   Partly Cloudy
12:20 PM 44.6 °F 38.1 °F 33.8 °F 66% 30.01 in 6.2 mi NNE 13.8 mph - N/A   Partly Cloudy
12:50 PM 44.6 °F 38.4 °F 33.8 °F 66% 29.98 in 6.2 mi NNE 12.7 mph - N/A   Partly Cloudy
1:50 PM 44.6 °F 38.1 °F 32.0 °F 61% 29.98 in 6.2 mi NNE 13.8 mph - N/A   Partly Cloudy
2:20 PM 44.6 °F 38.1 °F 32.0 °F 61% 29.95 in 6.2 mi NNE 13.8 mph - N/A   Partly Cloudy
2:50 PM 44.6 °F 38.4 °F 30.2 °F 57% 29.95 in 6.2 mi NNE 12.7 mph - N/A   Partly Cloudy
3:20 PM 44.6 °F 37.8 °F 32.0 °F 61% 29.95 in 6.2 mi North 15.0 mph - N/A   Partly Cloudy
3:50 PM 42.8 °F 35.4 °F 30.2 °F 61% 29.95 in 6.2 mi NNE 15.0 mph - N/A   Partly Cloudy
4:20 PM 42.8 °F 35.4 °F 32.0 °F 66% 29.95 in 6.2 mi North 15.0 mph - N/A   Partly Cloudy
4:50 PM 41.0 °F 33.1 °F 33.8 °F 76% 29.95 in 6.2 mi North 15.0 mph - N/A Rain Light Rain
5:20 PM 41.0 °F 32.5 °F 33.8 °F 76% 29.95 in 6.2 mi North 17.3 mph - N/A   Scattered Clouds
5:50 PM 39.2 °F 30.2 °F 33.8 °F 81% 29.95 in 6.2 mi North 17.3 mph - N/A   Mostly Cloudy
6:20 PM 39.2 °F 31.6 °F 32.0 °F 75% 29.95 in 6.2 mi North 12.7 mph - N/A   Mostly Cloudy
6:50 PM 39.2 °F 30.8 °F 32.0 °F 75% 29.95 in 6.2 mi North 15.0 mph - N/A   Scattered Clouds
7:20 PM 39.2 °F 31.6 °F 32.0 °F 75% 29.95 in 6.2 mi North 12.7 mph - N/A   Scattered Clouds
7:50 PM 39.2 °F 31.6 °F 30.2 °F 70% 29.95 in 6.2 mi North 12.7 mph - N/A   Partly Cloudy
8:20 PM 39.2 °F 31.2 °F 28.4 °F 65% 29.95 in 6.2 mi North 13.8 mph - N/A   Partly Cloudy
8:50 PM 37.4 °F 29.3 °F 28.4 °F 70% 29.95 in 6.2 mi North 12.7 mph - N/A   Partly Cloudy
9:20 PM 37.4 °F 29.3 °F 28.4 °F 70% 29.95 in - North 12.7 mph - N/A   Clear
9:50 PM 37.4 °F 30.3 °F 26.6 °F 65% 29.95 in - North 10.4 mph - N/A   Clear
10:20 PM 37.4 °F 29.3 °F 26.6 °F 65% 29.95 in - North 12.7 mph - N/A   Clear
10:50 PM 37.4 °F 30.3 °F 26.6 °F 65% 29.95 in - North 10.4 mph - N/A   Clear
11:20 PM 35.6 °F 26.2 °F 26.6 °F 70% 29.98 in 6.2 mi North 15.0 mph - N/A   Partly Cloudy
11:50 PM 35.6 °F 26.6 °F 28.4 °F 75% 29.98 in 6.2 mi North 13.8 mph - N/A   Partly Cloudy